Flight Track Log - Related Links

Times and Time Zones

All times are in EDT time to prevent confusion due to time zone crossing. See the SWA1718 flight status page for this flight to view local times or setup timezone preferences in your user account.

Time Position Orientation Groundspeed Altitude Reporting Facility
EDT Latitude Longitude Course Direction KTS MPH feet Rate Location/Type
05:24PM 32.8500 -96.8667 320° Northwest 149 171 1,200  Level Dallas / Fort Worth TRACON
05:25PM 32.8833 -96.9000 320° Northwest 189 217 3,700 3,652 Climbing Dallas / Fort Worth TRACON
05:26PM 32.9333 -96.9667 312° West 242 278 8,200 3,255 Climbing Dallas / Fort Worth TRACON
05:29PM 33.0794 -97.1928 308° West 314 361 17,100 3,012 Climbing Fort Worth Center
05:30PM 33.0817 -97.3142 271° West 332 382 20,600 2,900 Climbing Fort Worth Center
05:31PM 33.0839 -97.4183 271° West 350 403 22,900 1,900 Climbing Fort Worth Center
05:32PM 33.0900 -97.5547 273° West 368 423 24,400 2,050 Climbing Fort Worth Center
05:33PM 33.0919 -97.6714 271° West 368 423 27,000 2,300 Climbing Fort Worth Center
05:34PM 33.1083 -97.7953 279° West 368 423 29,000 2,800 Climbing Fort Worth Center
05:35PM 33.1475 -97.9097 292° West 368 423 32,600 2,850 Climbing Fort Worth Center
05:36PM 33.1825 -98.0192 291° West 363 418 34,700 1,850 Climbing Fort Worth Center
05:37PM 33.2153 -98.1286 290° West 357 411 36,300 1,450 Climbing Fort Worth Center
05:38PM 33.2481 -98.2356 290° West 347 399 37,600 850 Climbing Fort Worth Center
05:39PM 33.2808 -98.3353 291° West 352 405 38,000 200 Climbing Fort Worth Center
05:40PM 33.3133 -98.4425 290° West 345 397 38,000  Level Fort Worth Center
05:41PM 33.3686 -98.5575 300° West 354 407 38,000  Level Fort Worth Center
05:42PM 33.4344 -98.6606 307° West 371 427 38,000  Level Fort Worth Center
05:43PM 33.4942 -98.7611 305° West 378 435 38,000  Level Fort Worth Center
05:44PM 33.5556 -98.8567 308° West 388 447 38,000  Level Fort Worth Center
05:45PM 33.6067 -98.9472 304° West 388 447 38,000 -350 Level Fort Worth Center
05:46PM 33.6867 -99.0686 308° West 388 447 37,300 -850 Descending Fort Worth Center
05:47PM 33.7417 -99.1644 305° West 378 435 36,300 -650 Descending Fort Worth Center
05:48PM 33.8069 -99.2683 307° West 378 435 36,000 -150 Descending Fort Worth Center
05:49PM 33.8658 -99.3669 306° West 378 435 36,000  Level Fort Worth Center
05:50PM 33.9308 -99.4761 306° West 383 441 36,000  Level Fort Worth Center
05:52PM 34.0453 -99.6639 306° West 390 449 36,000  Level Albuquerque Center
05:53PM 34.1089 -99.7717 306° West 393 452 36,000 -387 Level Albuquerque Center
05:54PM 34.1739 -99.8797 306° West 395 455 35,200 -871 Descending Albuquerque Center
05:55PM 34.2381 -99.9839 307° West 388 447 34,200 -1,016 Descending Albuquerque Center
05:56PM 34.3100 -100.1056 306° West 383 441 33,100 -1,016 Descending Albuquerque Center
05:57PM 34.3686 -100.2111 304° West 380 437 32,100 -968 Descending Albuquerque Center
05:58PM 34.4292 -100.3161 305° West 380 437 31,100 -1,306 Descending Albuquerque Center
05:59PM 34.4875 -100.4183 305° West 374 430 29,400 -1,887 Descending Albuquerque Center
06:00PM 34.5431 -100.5161 305° West 359 413 27,200 -2,129 Descending Albuquerque Center
06:01PM 34.5967 -100.6131 304° West 348 400 25,000 -2,323 Descending Albuquerque Center
06:02PM 34.6594 -100.7247 304° West 337 388 22,400 -2,274 Descending Albuquerque Center
06:03PM 34.7097 -100.8142 304° West 326 375 20,300 -1,935 Descending Albuquerque Center
06:04PM 34.7575 -100.9006 304° West 314 361 18,400 -1,839 Descending Albuquerque Center
06:05PM 34.8047 -100.9844 304° West 303 349 16,500 -1,887 Descending Albuquerque Center
06:06PM 34.8511 -101.0681 304° West 301 346 14,500 -2,323 Descending Albuquerque Center
06:07PM 34.9061 -101.1658 304° West 293 337 11,700 -2,129 Descending Albuquerque Center
06:08PM 34.9514 -101.2481 304° West 292 336 10,100 -1,306 Descending Albuquerque Center
06:09PM 34.9922 -101.3217 304° West 277 319 9,000 -1,016 Descending Albuquerque Center
06:10PM 35.0294 -101.3903 304° West 257 296 8,000 -726 Descending Albuquerque Center
06:11PM 35.0642 -101.4528 304° West 240 276 7,500 -581 Descending Albuquerque Center
06:12PM 35.0947 -101.5069 305° West 216 249 6,800 -823 Descending Albuquerque Center
06:14PM 35.1211 -101.5561 303° West 193 222 5,800 -871 Descending Albuquerque Center
06:15PM 35.1508 -101.6092 304° West 169 194 5,000 -629 Descending Albuquerque Center
06:16PM 35.1814 -101.6414 319° Northwest 156 180 4,500 -629 Descending Albuquerque Center
06:17PM 35.2078 -101.6728 316° Northwest 142 163 3,700 -774 Descending Albuquerque Center
06:19PM 35.2167 -101.7000 39° Northeast  Level FlightAware Approximate

Login

Don't have an account? Register now (free) for customized features, flight alerts, and more!